• In Hungary
  • List of Countries
  • For 7 days
  • Water Temperature
  • Satellite Maps
  • Weather Map
  • News
  • Weather Widgets
  • user-avatar
    Login

    Hourly Weather Gold Coast

    Today, 26 September, Tuesday

    Time Temperature Precipitation Wind Pressure Humidity
    00:00 +23°C° 0 mm 4 mps 755 mmHg 42%
    01:00 +24°C° 0 mm 3 mps 755 mmHg 40%
    02:00 +24°C° 0 mm 3 mps 755 mmHg 39%
    03:00 +24°C° 0 mm 2 mps 755 mmHg 39%
    04:00 +24°C° 0 mm 1 mps 755 mmHg 36%
    05:00 +24°C° 0 mm 1 mps 755 mmHg 37%
    06:00 +24°C° 0 mm 1 mps 756 mmHg 39%
    07:00 +25°C° 0 mm 1 mps 756 mmHg 40%
    08:00 +26°C° 0 mm 2 mps 756 mmHg 39%
    09:00 +28°C° 0 mm 3 mps 756 mmHg 37%
    10:00 +29°C° 0 mm 5 mps 757 mmHg 39%
    11:00 +29°C° 0 mm 5 mps 756 mmHg 39%
    12:00 +29°C° 0 mm 5 mps 756 mmHg 39%
    13:00 +30°C° 0 mm 5 mps 756 mmHg 39%
    14:00 +29°C° 0 mm 5 mps 756 mmHg 41%
    15:00 +28°C° 0 mm 5 mps 756 mmHg 44%
    16:00 +27°C° 0 mm 6 mps 756 mmHg 49%
    17:00 +25°C° 0 mm 5 mps 756 mmHg 57%
    18:00 +22°C° 0 mm 5 mps 757 mmHg 65%
    19:00 +20°C° 0 mm 4 mps 758 mmHg 73%
    20:00 +19°C° 0 mm 4 mps 758 mmHg 77%
    21:00 +18°C° 0 mm 4 mps 759 mmHg 80%
    22:00 +18°C° 0 mm 4 mps 759 mmHg 83%
    23:00 +18°C° 0 mm 4 mps 759 mmHg 83%

    Tomorrow, 27 September, Wednesday

    Time Temperature Precipitation Wind Pressure Humidity
    00:00 +18°C° 0 mm 4 mps 759 mmHg 83%
    01:00 +18°C° 0 mm 3 mps 759 mmHg 83%
    02:00 +18°C° 0 mm 3 mps 759 mmHg 82%
    03:00 +18°C° 0 mm 3 mps 759 mmHg 81%
    04:00 +19°C° 0 mm 3 mps 759 mmHg 80%
    05:00 +19°C° 0 mm 3 mps 759 mmHg 80%
    06:00 +19°C° 0 mm 3 mps 760 mmHg 80%
    07:00 +19°C° 0 mm 3 mps 760 mmHg 80%
    08:00 +20°C° 0 mm 3 mps 760 mmHg 77%
    09:00 +21°C° 0 mm 3 mps 760 mmHg 73%
    10:00 +22°C° 0 mm 4 mps 760 mmHg 70%
    11:00 +23°C° 0 mm 4 mps 759 mmHg 67%
    12:00 +25°C° 0 mm 4 mps 759 mmHg 64%
    13:00 +26°C° 0 mm 4 mps 758 mmHg 61%
    14:00 +25°C° 0 mm 4 mps 758 mmHg 64%
    15:00 +25°C° 0 mm 4 mps 757 mmHg 67%
    16:00 +25°C° 0 mm 4 mps 757 mmHg 69%
    17:00 +23°C° 0 mm 4 mps 757 mmHg 77%
    18:00 +22°C° 0 mm 4 mps 757 mmHg 84%
    19:00 +21°C° 0 mm 5 mps 757 mmHg 91%
    20:00 +21°C° 0 mm 4 mps 758 mmHg 91%
    21:00 +21°C° 0 mm 4 mps 758 mmHg 91%
    22:00 +21°C° 0 mm 4 mps 758 mmHg 91%
    23:00 +21°C° 0 mm 5 mps 757 mmHg 91%

    Day after tomorrow, 28 September, Thursday

    Time Temperature Precipitation Wind Pressure Humidity
    00:00 +21°C° 0 mm 5 mps 757 mmHg 91%
    01:00 +21°C° 0 mm 6 mps 757 mmHg 91%
    02:00 +21°C° 0 mm 6 mps 756 mmHg 89%
    03:00 +20°C° 0 mm 6 mps 756 mmHg 88%
    04:00 +20°C° 0 mm 6 mps 755 mmHg 87%
    05:00 +21°C° 0 mm 6 mps 755 mmHg 84%
    06:00 +21°C° 0 mm 7 mps 756 mmHg 80%
    07:00 +22°C° 0 mm 7 mps 756 mmHg 77%
    08:00 +27°C° 0 mm 7 mps 756 mmHg 60%
    09:00 +30°C° 0 mm 6 mps 756 mmHg 43%
    10:00 +35°C° 0 mm 6 mps 756 mmHg 27%
    11:00 +38°C° 0 mm 7 mps 755 mmHg 23%
    12:00 +40°C° 0 mm 7 mps 754 mmHg 20%
    13:00 +43°C° 0 mm 8 mps 753 mmHg 16%
    14:00 +43°C° 0 mm 8 mps 753 mmHg 17%
    15:00 +41°C° 0 mm 8 mps 752 mmHg 18%
    16:00 +41°C° 0 mm 8 mps 752 mmHg 19%
    17:00 +38°C° 0 mm 7 mps 752 mmHg 25%
    18:00 +34°C° 0 mm 6 mps 753 mmHg 30%
    19:00 +30°C° 0 mm 5 mps 754 mmHg 36%
    20:00 +29°C° 0 mm 5 mps 754 mmHg 38%
    21:00 +27°C° 0 mm 4 mps 755 mmHg 40%
    22:00 +26°C° 0 mm 3 mps 756 mmHg 42%
    23:00 +25°C° 0 mm 3 mps 756 mmHg 45%

    29 September, Friday

    Time Temperature Precipitation Wind Pressure Humidity
    00:00 +24°C° 0 mm 3 mps 756 mmHg 49%
    01:00 +24°C° 0 mm 3 mps 756 mmHg 52%
    02:00 +22°C° 0 mm 3 mps 756 mmHg 55%
    03:00 +22°C° 0 mm 3 mps 756 mmHg 58%
    04:00 +21°C° 0 mm 2 mps 756 mmHg 61%
    05:00 +23°C° 0 mm 2 mps 756 mmHg 60%
    06:00 +24°C° 0 mm 2 mps 757 mmHg 59%
    07:00 +25°C° 0 mm 2 mps 757 mmHg 57%
    08:00 +28°C° 0 mm 2 mps 758 mmHg 49%
    09:00 +31°C° 0 mm 2 mps 758 mmHg 41%
    10:00 +35°C° 0 mm 2 mps 758 mmHg 32%
    11:00 +36°C° 0 mm 3 mps 757 mmHg 30%
    12:00 +37°C° 0 mm 3 mps 756 mmHg 28%
    13:00 +37°C° 0 mm 3 mps 756 mmHg 26%
    14:00 +36°C° 0 mm 3 mps 755 mmHg 29%
    15:00 +36°C° 0 mm 4 mps 755 mmHg 32%
    16:00 +35°C° 0 mm 4 mps 755 mmHg 35%
    17:00 +31°C° 0 mm 3 mps 755 mmHg 47%
    18:00 +28°C° 0 mm 2 mps 756 mmHg 58%
    19:00 +25°C° 0 mm 1 mps 756 mmHg 70%
    20:00 +24°C° 0 mm 1 mps 757 mmHg 70%
    21:00 +24°C° 0 mm 1 mps 757 mmHg 71%
    22:00 +23°C° 0 mm 1 mps 757 mmHg 71%
    23:00 +23°C° 0 mm 2 mps 757 mmHg 67%

    30 September, Saturday

    Time Temperature Precipitation Wind Pressure Humidity
    00:00 +23°C° 0 mm 2 mps 757 mmHg 64%
    01:00 +21°C° 0 mm 2 mps 756 mmHg 60%
    02:00 +21°C° 0 mm 2 mps 756 mmHg 59%
    03:00 +20°C° 0 mm 2 mps 756 mmHg 57%
    04:00 +19°C° 0 mm 2 mps 756 mmHg 56%
    05:00 +21°C° 0 mm 2 mps 757 mmHg 51%
    06:00 +23°C° 0 mm 2 mps 758 mmHg 45%
    07:00 +24°C° 0 mm 3 mps 759 mmHg 40%
    08:00 +26°C° 0 mm 3 mps 759 mmHg 34%
    09:00 +29°C° 0 mm 3 mps 758 mmHg 29%
    10:00 +32°C° 0 mm 2 mps 758 mmHg 23%
    11:00 +33°C° 0 mm 3 mps 758 mmHg 23%
    12:00 +34°C° 0 mm 4 mps 757 mmHg 23%
    13:00 +35°C° 0 mm 5 mps 757 mmHg 22%
    14:00 +32°C° 0 mm 5 mps 757 mmHg 28%
    15:00 +29°C° 0 mm 6 mps 756 mmHg 34%
    16:00 +26°C° 0 mm 6 mps 756 mmHg 40%
    17:00 +23°C° 0 mm 5 mps 757 mmHg 45%
    18:00 +21°C° 0 mm 4 mps 758 mmHg 51%
    19:00 +19°C° 0 mm 3 mps 758 mmHg 56%
    20:00 +19°C° 0 mm 3 mps 759 mmHg 58%
    21:00 +19°C° 0 mm 2 mps 760 mmHg 59%
    22:00 +19°C° 0 mm 2 mps 760 mmHg 61%
    23:00 +18°C° 0.1 mm 3 mps 760 mmHg 65%

    1 October, Sunday

    Time Temperature Precipitation Wind Pressure Humidity
    00:00 +18°C° 0.1 mm 4 mps 760 mmHg 69%
    01:00 +17°C° 0.1 mm 4 mps 759 mmHg 73%
    02:00 +17°C° 0 mm 4 mps 760 mmHg 72%
    03:00 +15°C° 0 mm 4 mps 760 mmHg 71%
    04:00 +15°C° 0 mm 4 mps 760 mmHg 69%
    05:00 +15°C° 0.1 mm 4 mps 761 mmHg 70%
    06:00 +16°C° 0.1 mm 3 mps 761 mmHg 70%
    07:00 +16°C° 0.1 mm 3 mps 761 mmHg 71%
    08:00 +17°C° 0 mm 2 mps 761 mmHg 65%
    09:00 +18°C° 0 mm 2 mps 761 mmHg 59%
    10:00 +19°C° 0 mm 2 mps 761 mmHg 53%
    11:00 +23°C° 0 mm 2 mps 760 mmHg 44%
    12:00 +26°C° 0 mm 2 mps 760 mmHg 35%
    13:00 +28°C° 0 mm 2 mps 759 mmHg 26%
    14:00 +28°C° 0 mm 3 mps 759 mmHg 29%
    15:00 +27°C° 0 mm 3 mps 759 mmHg 32%
    16:00 +26°C° 0 mm 4 mps 759 mmHg 35%
    17:00 +23°C° 0 mm 4 mps 760 mmHg 45%
    18:00 +21°C° 0 mm 4 mps 761 mmHg 55%
    19:00 +18°C° 0 mm 3 mps 761 mmHg 65%
    20:00 +18°C° 0 mm 3 mps 762 mmHg 70%
    21:00 +17°C° 0 mm 2 mps 762 mmHg 74%
    22:00 +16°C° 0 mm 2 mps 763 mmHg 79%
    23:00 +16°C° 0 mm 2 mps 762 mmHg 80%
    Show more